VIASAT-3

Last updated on Mon Nov 17 2025 00:02:51 GMT+0000 (Coordinated Universal Time)

1 56370U 23060A 25320.43339500 -.00000175 00000+0 00000+0 0 9993 2 56370 0.0265 289.6769 0000335 160.5414 32.6612 1.00271003 9301
UTC large
Height (km)
Speed (km/s)
/
Latitude / Longitude
Inclination (degrees)
Orbital Period (minutes)
Azimuth
Elevation
Range (km)
Doppler Factor

Next 0 passes for location: London (51.5072 / 0.1276)

Sorry there are no passes over London.
VIASAT-3